[[{"header":{"parameterUnit":"m.s-1","parameterCategory":2,"la1":30.2991,"la2":30.254,"lo1":-89.0895,"lo2":-89.0444,"dy":0.0017,"dx":0.0017,"nx":28,"ny":28,"refTime":"2024-02-29T03:00:00:Z","depth":"0","parameterNumber":2,"parameterNumberName":"U-component_of_CURRENTS"},"data":[0,0,0,0,0,0,0,0,0,0,0,0,0,0,0,0,0,0,0,0,0,0,0,0,0,0,0,0,0,0,0,0,0,0,0,0,0,0,0,0,0,0,0,0,0,0,0,0,0,0,0,0,0,0,0,0,0,0,-0.2045,-0.2046,0,-0.2069,-0.2069,-0.2069,-0.2063,-0.2063,-0.2062,-0.2062,-0.2056,-0.2056,-0.2056,0,0,0,0,0,0,0,0,0,0,0,0,0,-0.1994,-0.1994,-0.2045,-0.2046,-0.2046,-0.2069,-0.2069,-0.2069,-0.2063,-0.2063,-0.2062,-0.2062,-0.2056,-0.2056,-0.2056,0,0,0,0,0,0,0,0,0,0,0,0,0,-0.2014,-0.1995,-0.2045,-0.2048,-0.2048,-0.2069,-0.2069,-0.2069,-0.2063,-0.2063,-0.2062,-0.2062,-0.2056,-0.2056,-0.2056,-0.2065,0,0,-0.2057,-0.2057,0,0,0,0,0,0,0,0,-0.2013,-0.2016,-0.2047,-0.2048,-0.2048,-0.2065,-0.2049,-0.2067,-0.2063,-0.2055,-0.2062,-0.2062,-0.2058,-0.2058,-0.206,-0.2065,-0.2064,-0.2057,-0.2057,-0.2057,-0.2057,0,0,0,0,0,0,0,-0.2012,-0.2015,-0.2052,-0.2047,-0.2048,-0.2048,-0.205,-0.2052,-0.2056,-0.2056,-0.2056,-0.2062,-0.2058,-0.206,-0.206,-0.2064,-0.2057,-0.2057,-0.2057,-0.2057,-0.2073,-0.2073,0,0,0,0,0,0,-0.2014,-0.2014,-0.2052,-0.2053,-0.2032,-0.2049,-0.2051,-0.2058,-0.2057,-0.2057,-0.2063,-0.2062,-0.206,-0.206,-0.206,-0.207,-0.2057,-0.2057,-0.2057,-0.2072,-0.2073,-0.2073,0,0,0,0,0,0,-0.2013,-0.2017,-0.2051,-0.2036,-0.204,-0.2051,-0.2058,-0.2059,-0.2062,-0.2063,-0.2062,-0.2065,-0.206,-0.206,-0.2063,-0.207,-0.2057,-0.2057,-0.2072,-0.2072,-0.2073,-0.209,0,0,0,0,0,0,-0.2012,-0.2017,-0.2019,-0.2036,-0.2041,-0.2065,-0.2058,-0.2059,-0.2068,-0.2067,-0.2065,-0.2064,-0.206,-0.2063,-0.2064,-0.207,-0.2057,-0.2071,-0.2072,-0.2073,-0.2089,-0.2091,-0.2093,0,0,0,0,0,-0.201,-0.2017,-0.2019,-0.2024,-0.2045,-0.2066,-0.2068,-0.2072,-0.2068,-0.2073,-0.207,-0.2064,-0.2067,-0.2064,-0.2064,-0.207,-0.2071,-0.2072,-0.2073,-0.2088,-0.209,-0.2093,0,0,0,0,0,0,-0.1996,-0.2018,-0.202,-0.2034,-0.205,-0.2066,-0.2071,-0.2075,-0.2077,-0.2074,-0.2069,-0.2069,-0.2074,-0.2071,-0.2067,-0.2077,-0.2068,-0.2069,-0.208,-0.2082,-0.2084,-0.209,-0.2057,0,0,0,0,0,-0.1995,-0.2005,-0.2027,-0.2036,-0.2045,-0.2058,-0.2065,-0.2071,-0.2078,-0.2078,-0.2077,-0.2075,-0.2078,-0.2079,-0.2079,-0.2086,-0.2087,-0.209,-0.2092,-0.2093,-0.2098,-0.21,-0.2102,-0.2076,-0.2076,-0.2076,0,0,-0.1991,-0.2006,-0.201,-0.2034,-0.2044,-0.2063,-0.206,-0.2076,-0.2088,-0.2078,-0.2086,-0.2082,-0.2081,-0.2088,-0.209,-0.2085,-0.2103,-0.2094,-0.2096,-0.21,-0.2101,-0.2103,-0.2106,-0.2076,-0.2076,-0.2076,0,0,-0.1994,-0.2003,-0.2014,-0.2031,-0.2053,-0.2064,-0.207,-0.2088,-0.2091,-0.2102,-0.2097,-0.2098,-0.21,-0.2102,-0.2104,-0.2118,-0.2113,-0.2115,-0.213,-0.2132,-0.2134,-0.2136,-0.2148,-0.2151,-0.2116,-0.2116,-0.2116,0,-0.1989,-0.2007,-0.202,-0.204,-0.2055,-0.2066,-0.2085,-0.2095,-0.211,-0.2116,-0.2105,-0.2112,-0.2109,-0.2122,-0.2125,-0.2122,-0.2124,-0.2121,-0.2134,-0.2136,-0.2138,-0.215,-0.2153,-0.2117,-0.2117,-0.2117,-0.2117,0,-0.2004,-0.202,-0.2029,-0.2057,-0.2074,-0.2092,-0.2114,-0.2125,-0.2127,-0.2136,-0.2145,-0.2138,-0.2142,-0.2141,-0.2137,-0.215,-0.2149,-0.2136,-0.2128,-0.2141,-0.2154,-0.2157,-0.2119,-0.2118,-0.2118,-0.2118,0,0,-0.1987,-0.203,-0.2032,-0.2048,-0.2085,-0.21,-0.2126,-0.2151,-0.2169,-0.2168,-0.2187,-0.2183,-0.2176,-0.2177,-0.217,-0.2171,-0.2185,-0.2159,-0.2159,-0.2173,-0.2197,-0.2232,-0.2238,-0.2172,-0.2172,-0.2172,-0.2204,0,-0.1992,-0.2026,-0.2049,-0.208,-0.21,-0.2125,-0.215,-0.2174,-0.219,-0.2212,-0.2205,-0.2216,-0.2192,-0.2193,-0.219,-0.2189,-0.2192,-0.2179,-0.2182,-0.2183,-0.2212,-0.2242,-0.226,-0.2293,-0.2206,-0.2207,-0.2207,0,-0.1996,-0.2019,-0.2048,-0.2094,-0.2105,-0.2124,-0.2166,-0.2192,-0.2228,-0.224,-0.2249,-0.2251,-0.2256,-0.223,-0.223,-0.2221,-0.2211,-0.2206,-0.2207,-0.2236,-0.2223,-0.2264,-0.2301,-0.2324,-0.2211,-0.2211,-0.2211,0,-0.1969,-0.2017,-0.2036,-0.2052,-0.2106,-0.212,-0.2147,-0.2192,-0.2224,-0.2257,-0.2284,-0.2284,-0.2292,-0.2274,-0.2268,-0.2246,-0.2275,-0.2242,-0.2265,-0.2268,-0.2284,-0.2287,-0.2344,-0.2242,-0.2242,-0.2242,-0.2242,0,-0.1962,-0.1978,-0.2022,-0.2032,-0.206,-0.2103,-0.2139,-0.217,-0.2228,-0.2274,-0.2289,-0.2326,-0.2302,-0.2319,-0.2293,-0.2304,-0.2293,-0.2282,-0.2282,-0.2292,-0.2295,-0.2315,-0.2297,-0.2243,-0.2243,-0.2242,-0.2242,0,-0.1925,-0.1956,-0.1981,-0.2031,-0.2045,-0.2061,-0.2133,-0.2166,-0.2224,-0.2287,-0.23,-0.236,-0.2387,-0.2379,-0.2371,-0.2349,-0.2337,-0.2348,-0.2372,-0.2374,-0.2408,-0.2389,-0.2377,-0.2324,-0.2376,-0.2377,-0.2378,0,-0.1908,-0.1914,-0.1964,-0.1978,-0.1996,-0.2034,-0.2065,-0.2142,-0.2194,-0.2311,-0.2344,-0.2406,-0.2466,-0.2489,-0.2476,-0.2466,-0.239,-0.2444,-0.2403,-0.2433,-0.241,-0.2348,-0.2297,-0.243,-0.2432,-0.2433,-0.2434,0,-0.1865,-0.1881,-0.1897,-0.1931,-0.1959,-0.2003,-0.2061,-0.2105,-0.221,-0.2297,-0.2414,-0.2481,-0.2556,-0.2597,-0.2593,-0.2551,-0.2426,-0.2465,-0.2485,-0.2459,-0.2405,-0.2346,-0.2393,-0.2443,-0.2442,-0.2441,-0.2441,-0.244,-0.182,-0.1822,-0.1844,-0.187,-0.1908,-0.1952,-0.1965,-0.2079,-0.2175,-0.2328,-0.2435,-0.2606,-0.2683,-0.2712,-0.2658,-0.262,-0.2524,-0.256,-0.2535,-0.247,-0.2419,-0.2501,-0.2557,-0.2557,-0.2556,-0.2556,-0.2556,0,-0.1756,-0.1764,-0.1785,-0.1811,-0.1825,-0.1871,-0.1945,-0.197,-0.2078,-0.2332,-0.2482,-0.2778,-0.2825,-0.2842,-0.2837,-0.2742,-0.2608,-0.2644,-0.2563,-0.2502,-0.2588,-0.2595,-0.2677,-0.2677,-0.2677,-0.2676,-0.2676,-0.2676,-0.1719,-0.1706,-0.1719,-0.1709,-0.1729,-0.172,-0.174,-0.1825,-0.1985,-0.2291,-0.2598,-0.2863,-0.293,-0.3113,-0.2996,-0.2835,-0.2691,-0.2627,-0.2551,-0.2649,-0.2639,-0.2629,-0.2634,-0.2723,-0.2723,-0.2442,-0.244,-0.2438]},{"header":{"parameterUnit":"m.s-1","parameterCategory":2,"la1":30.2991,"la2":30.254,"lo1":-89.0895,"lo2":-89.0444,"dy":0.0017,"dx":0.0017,"nx":28,"ny":28,"refTime":"2024-02-29T03:00:00:Z","depth":"0","parameterNumber":3,"parameterNumberName":"V-component_of_CURRENTS"},"data":[0,0,0,0,0,0,0,0,0,0,0,0,0,0,0,0,0,0,0,0,0,0,0,0,0,0,0,0,0,0,0,0,0,0,0,0,0,0,0,0,0,0,0,0,0,0,0,0,0,0,0,0,0,0,0,0,0,0,-0.0402,-0.0401,0,-0.0318,-0.0317,-0.0316,-0.0259,-0.0259,-0.0259,-0.0258,-0.0155,-0.0153,-0.015,0,0,0,0,0,0,0,0,0,0,0,0,0,-0.046,-0.046,-0.0402,-0.0401,-0.04,-0.0318,-0.0317,-0.0316,-0.0259,-0.0259,-0.0259,-0.0258,-0.0156,-0.0153,-0.015,0,0,0,0,0,0,0,0,0,0,0,0,0,-0.0411,-0.046,-0.0402,-0.0363,-0.0359,-0.0318,-0.0317,-0.0315,-0.0259,-0.0259,-0.0258,-0.0258,-0.0157,-0.0153,-0.015,-0.0135,0,0,-0.0138,-0.0136,0,0,0,0,0,0,0,0,-0.0413,-0.0408,-0.037,-0.0366,-0.0361,-0.03,-0.03,-0.0254,-0.0259,-0.0296,-0.0258,-0.0258,-0.0203,-0.0195,-0.0179,-0.013,-0.0126,-0.0138,-0.0136,-0.0134,-0.0133,0,0,0,0,0,0,0,-0.0417,-0.0411,-0.0368,-0.0369,-0.0364,-0.0332,-0.0324,-0.029,-0.0251,-0.0293,-0.0289,-0.0281,-0.02,-0.0183,-0.0176,-0.0124,-0.0138,-0.0135,-0.0132,-0.0131,-0.0048,-0.0048,0,0,0,0,0,0,-0.0433,-0.0415,-0.037,-0.0365,-0.0388,-0.0331,-0.0323,-0.0319,-0.0252,-0.0242,-0.0282,-0.0279,-0.0189,-0.018,-0.0172,-0.0144,-0.0134,-0.013,-0.0128,-0.0048,-0.0048,-0.0048,0,0,0,0,0,0,-0.0435,-0.043,-0.0374,-0.0389,-0.038,-0.0331,-0.0326,-0.0317,-0.0299,-0.0244,-0.0233,-0.0273,-0.0188,-0.0177,-0.0141,-0.014,-0.0129,-0.0125,-0.0048,-0.0048,-0.0048,-0.0091,0,0,0,0,0,0,-0.0437,-0.0432,-0.0434,-0.039,-0.0379,-0.0353,-0.0327,-0.0316,-0.0296,-0.0291,-0.0233,-0.0223,-0.0187,-0.0147,-0.0137,-0.0134,-0.0122,-0.0048,-0.0048,-0.0048,-0.009,-0.0093,-0.0096,0,0,0,0,0,-0.044,-0.0443,-0.0435,-0.0429,-0.0384,-0.0354,-0.0345,-0.0308,-0.0296,-0.0289,-0.025,-0.0225,-0.014,-0.0144,-0.0133,-0.0128,-0.0048,-0.0048,-0.0048,-0.0089,-0.0092,-0.0096,0,0,0,0,0,0,-0.0465,-0.0437,-0.0426,-0.042,-0.0393,-0.0345,-0.0336,-0.0313,-0.0276,-0.0272,-0.0222,-0.0209,-0.0178,-0.0149,-0.0154,-0.0105,-0.0091,-0.0089,-0.0126,-0.0129,-0.0132,-0.014,-0.0119,0,0,0,0,0,-0.0475,-0.0473,-0.0438,-0.0434,-0.0423,-0.0382,-0.0366,-0.0342,-0.0305,-0.0288,-0.0247,-0.0206,-0.017,-0.0147,-0.0113,-0.0084,-0.0055,-0.0075,-0.0078,-0.0081,-0.0079,-0.0038,-0.0037,-0.0048,-0.0048,-0.0048,0,0,-0.0482,-0.0468,-0.0466,-0.044,-0.0415,-0.0402,-0.0371,-0.035,-0.0334,-0.0283,-0.0251,-0.0216,-0.0166,-0.0134,-0.0118,-0.0108,-0.0063,-0.0081,-0.0083,-0.008,-0.0038,-0.0037,-0.0036,-0.0048,-0.0048,-0.0048,0,0,-0.05,-0.0487,-0.0492,-0.0474,-0.0446,-0.0419,-0.0417,-0.0374,-0.035,-0.0318,-0.0279,-0.0243,-0.0188,-0.0149,-0.0123,-0.012,-0.0083,-0.0113,-0.0127,-0.0087,-0.0086,-0.0084,-0.0052,-0.0047,-0.011,-0.0111,-0.0111,0,-0.0511,-0.0514,-0.0487,-0.0486,-0.0474,-0.0431,-0.043,-0.0398,-0.0347,-0.0328,-0.0316,-0.0232,-0.0193,-0.0146,-0.0145,-0.0126,-0.0101,-0.0119,-0.0091,-0.0089,-0.0086,-0.0053,-0.0047,-0.0113,-0.0112,-0.0112,-0.0112,0,-0.0531,-0.0532,-0.0533,-0.052,-0.0501,-0.0494,-0.0452,-0.043,-0.04,-0.0365,-0.0317,-0.0261,-0.021,-0.0194,-0.0166,-0.013,-0.0118,-0.0104,-0.0084,-0.0088,-0.0053,-0.0046,-0.0116,-0.0115,-0.0114,-0.0114,0,0,-0.0558,-0.0552,-0.0552,-0.0557,-0.0522,-0.051,-0.0484,-0.0447,-0.0433,-0.0377,-0.0349,-0.0283,-0.0251,-0.022,-0.0179,-0.0141,-0.0106,-0.012,-0.0117,-0.0091,-0.0022,0.0013,0.0024,-0.0088,-0.0087,-0.0086,-0.0007,0,-0.0584,-0.0604,-0.0583,-0.059,-0.0596,-0.0551,-0.0532,-0.0491,-0.0449,-0.0409,-0.034,-0.0299,-0.0261,-0.024,-0.0194,-0.0126,-0.0089,-0.0129,-0.0019,-0.0016,0.0014,0.0033,0.0061,0.0136,0.0,0.0002,0.0002,0,-0.061,-0.0623,-0.0643,-0.0638,-0.0634,-0.0626,-0.0592,-0.0567,-0.0497,-0.0465,-0.0404,-0.0346,-0.0271,-0.0249,-0.0126,-0.0154,-0.0095,-0.0044,-0.0039,0.0015,0.0033,0.012,0.0155,0.0288,0.0013,0.0013,0.0012,0,-0.0655,-0.0662,-0.0685,-0.0682,-0.0665,-0.0661,-0.0644,-0.0588,-0.0572,-0.0498,-0.0476,-0.0375,-0.0326,-0.0232,-0.0114,-0.0122,0.0016,0.002,0.0107,0.011,0.0167,0.0174,0.0342,0.0095,0.0095,0.0095,0.0095,0,-0.0695,-0.0711,-0.0712,-0.0727,-0.075,-0.0711,-0.0717,-0.0682,-0.0633,-0.0617,-0.0511,-0.0471,-0.0321,-0.0218,-0.012,0.0026,0.0017,0.0113,0.0139,0.0152,0.0156,0.0302,0.0366,0.0098,0.0097,0.0097,0.0096,0,-0.074,-0.074,-0.0771,-0.0773,-0.0776,-0.0791,-0.0781,-0.0784,-0.0722,-0.0696,-0.0674,-0.0537,-0.0395,-0.0239,-0.0077,0.0019,0.0236,0.0196,0.0201,0.0226,0.0426,0.0486,0.0705,0.0731,0.0307,0.0308,0.031,0,-0.0764,-0.0788,-0.082,-0.0851,-0.0857,-0.0874,-0.0891,-0.0842,-0.084,-0.0737,-0.073,-0.0576,-0.0474,-0.0202,0.0011,0.0211,0.0302,0.0341,0.0334,0.0456,0.0542,0.0598,0.0605,0.039,0.0392,0.0393,0.0394,0,-0.0815,-0.0827,-0.0858,-0.0931,-0.0964,-0.0999,-0.101,-0.1022,-0.0956,-0.092,-0.0843,-0.0748,-0.0442,-0.0182,0.0111,0.0235,0.045,0.0376,0.0512,0.0636,0.0702,0.073,0.0311,0.0407,0.0406,0.0405,0.0404,0.0404,-0.085,-0.0893,-0.0946,-0.1012,-0.1061,-0.1118,-0.1159,-0.116,-0.1159,-0.1111,-0.0962,-0.0805,-0.0344,0.0085,0.0235,0.0604,0.0566,0.069,0.0755,0.0802,0.0832,0.0437,0.0556,0.0556,0.0555,0.0555,0.0555,0,-0.0895,-0.0951,-0.1025,-0.1108,-0.1188,-0.1187,-0.1238,-0.1282,-0.1309,-0.1216,-0.1128,-0.0613,-0.0168,0.026,0.0823,0.0987,0.0994,0.1061,0.115,0.1134,0.0801,0.0808,0.0977,0.0976,0.0976,0.0976,0.0976,0.0976,-0.0922,-0.1007,-0.1055,-0.1203,-0.1266,-0.1368,-0.1408,-0.146,-0.1427,-0.129,-0.1029,-0.0812,-0.0035,0.0969,0.1445,0.143,0.152,0.1522,0.1551,0.1338,0.1308,0.1279,0.1302,0.1572,0.1572,0.1846,0.1849,0.1851]}],[{"header":{"parameterUnit":"m.s-1","parameterCategory":2,"la1":30.2991,"la2":30.254,"lo1":-89.0895,"lo2":-89.0444,"dy":0.0017,"dx":0.0017,"nx":28,"ny":28,"refTime":"2024-02-29T03:00:00:Z","depth":"2","parameterNumber":2,"parameterNumberName":"U-component_of_CURRENTS"},"data":[0,0,0,0,0,0,0,0,0,0,0,0,0,0,0,0,0,0,0,0,0,0,0,0,0,0,0,0,0,0,0,0,0,0,0,0,0,0,0,0,0,0,0,0,0,0,0,0,0,0,0,0,0,0,0,0,0,0,-0.1977,-0.1977,0,-0.1999,-0.1999,-0.2,-0.1994,-0.1994,-0.1994,-0.1994,-0.1989,-0.1989,-0.1989,0,0,0,0,0,0,0,0,0,0,0,0,0,-0.1927,-0.1928,-0.1976,-0.1977,-0.1978,-0.1999,-0.1999,-0.2,-0.1994,-0.1994,-0.1994,-0.1994,-0.1989,-0.1989,-0.1989,0,0,0,0,0,0,0,0,0,0,0,0,0,-0.1947,-0.1928,-0.1976,-0.1979,-0.198,-0.1999,-0.1999,-0.2,-0.1995,-0.1994,-0.1994,-0.1994,-0.1989,-0.1989,-0.1989,-0.1996,0,0,-0.199,-0.199,0,0,0,0,0,0,0,0,-0.1946,-0.1948,-0.1978,-0.1979,-0.198,-0.1996,-0.198,-0.1998,-0.1995,-0.1986,-0.1994,-0.1993,-0.1991,-0.1991,-0.1993,-0.1996,-0.1996,-0.199,-0.199,-0.199,-0.199,0,0,0,0,0,0,0,-0.1944,-0.1947,-0.1983,-0.1979,-0.198,-0.1979,-0.1982,-0.1984,-0.1988,-0.1987,-0.1987,-0.1994,-0.1991,-0.1992,-0.1992,-0.1996,-0.199,-0.199,-0.199,-0.199,-0.2006,-0.2006,0,0,0,0,0,0,-0.1947,-0.1946,-0.1982,-0.1984,-0.1965,-0.1981,-0.1983,-0.1989,-0.1988,-0.1989,-0.1994,-0.1994,-0.1992,-0.1992,-0.1992,-0.2004,-0.199,-0.199,-0.199,-0.2005,-0.2006,-0.2006,0,0,0,0,0,0,-0.1946,-0.195,-0.1981,-0.1967,-0.1972,-0.1982,-0.1989,-0.199,-0.1994,-0.1994,-0.1994,-0.1998,-0.1992,-0.1992,-0.1996,-0.2003,-0.199,-0.199,-0.2005,-0.2005,-0.2006,-0.2024,0,0,0,0,0,0,-0.1944,-0.1949,-0.1952,-0.1968,-0.1973,-0.1996,-0.1989,-0.1991,-0.2,-0.1999,-0.1997,-0.1996,-0.1992,-0.1996,-0.1996,-0.2003,-0.199,-0.2004,-0.2005,-0.2006,-0.2023,-0.2025,-0.2027,0,0,0,0,0,-0.1942,-0.195,-0.1952,-0.1956,-0.1977,-0.1997,-0.1999,-0.2003,-0.2,-0.2005,-0.2002,-0.1997,-0.2001,-0.1997,-0.1997,-0.2004,-0.2004,-0.2005,-0.2006,-0.2022,-0.2025,-0.2027,0,0,0,0,0,0,-0.193,-0.1951,-0.1953,-0.1967,-0.1982,-0.1997,-0.2002,-0.2006,-0.2009,-0.2006,-0.2002,-0.2001,-0.2007,-0.2004,-0.2,-0.201,-0.2001,-0.2002,-0.2014,-0.2016,-0.2018,-0.2024,-0.199,0,0,0,0,0,-0.1929,-0.1939,-0.196,-0.1969,-0.1978,-0.199,-0.1998,-0.2003,-0.201,-0.2011,-0.201,-0.2009,-0.2011,-0.2012,-0.2013,-0.202,-0.2021,-0.2024,-0.2026,-0.2028,-0.2033,-0.2035,-0.2037,-0.2009,-0.2009,-0.2009,0,0,-0.1926,-0.194,-0.1944,-0.1967,-0.1977,-0.1995,-0.1993,-0.2008,-0.2021,-0.201,-0.202,-0.2016,-0.2015,-0.2022,-0.2024,-0.2019,-0.2038,-0.2029,-0.203,-0.2034,-0.2036,-0.2038,-0.2041,-0.2009,-0.2009,-0.2009,0,0,-0.1929,-0.1938,-0.1949,-0.1965,-0.1987,-0.1998,-0.2004,-0.2021,-0.2025,-0.2036,-0.2031,-0.2033,-0.2036,-0.2038,-0.2039,-0.2053,-0.2048,-0.2051,-0.2067,-0.2069,-0.2071,-0.2073,-0.2086,-0.2089,-0.2053,-0.2053,-0.2053,0,-0.1925,-0.1942,-0.1955,-0.1974,-0.1989,-0.2001,-0.2019,-0.2029,-0.2044,-0.205,-0.2041,-0.2048,-0.2045,-0.2058,-0.2061,-0.2058,-0.2061,-0.2058,-0.2071,-0.2073,-0.2075,-0.2088,-0.2091,-0.2054,-0.2054,-0.2053,-0.2053,0,-0.1939,-0.1955,-0.1964,-0.1991,-0.2009,-0.2026,-0.2048,-0.2059,-0.2062,-0.2071,-0.2081,-0.2075,-0.2079,-0.2078,-0.2074,-0.2087,-0.2086,-0.2073,-0.2065,-0.2079,-0.2091,-0.2094,-0.2055,-0.2055,-0.2054,-0.2054,0,0,-0.1924,-0.1966,-0.1968,-0.1984,-0.202,-0.2034,-0.206,-0.2085,-0.2104,-0.2104,-0.2123,-0.212,-0.2114,-0.2115,-0.2108,-0.2109,-0.2125,-0.2098,-0.2098,-0.2111,-0.2137,-0.217,-0.2176,-0.2111,-0.2112,-0.2112,-0.2144,0,-0.1929,-0.1962,-0.1985,-0.2015,-0.2034,-0.206,-0.2084,-0.2108,-0.2125,-0.2147,-0.2141,-0.2152,-0.2129,-0.2131,-0.2129,-0.2128,-0.2132,-0.2118,-0.2122,-0.2122,-0.2149,-0.218,-0.1982,-0.1997,-0.2147,-0.2147,-0.2147,0,-0.1933,-0.1955,-0.1984,-0.2028,-0.2039,-0.2059,-0.21,-0.2126,-0.2163,-0.2175,-0.2185,-0.2187,-0.2194,-0.2168,-0.2169,-0.2161,-0.2152,-0.2147,-0.2147,-0.2174,-0.216,-0.2006,-0.1997,-0.2152,-0.2152,-0.2151,-0.2151,0,-0.1906,-0.1954,-0.1973,-0.1989,-0.2041,-0.2056,-0.2082,-0.2127,-0.2159,-0.2193,-0.222,-0.2221,-0.223,-0.2213,-0.2208,-0.2187,-0.2216,-0.2183,-0.2205,-0.2207,-0.2039,-0.2026,-0.2184,-0.2184,-0.2184,-0.2183,-0.2183,0,-0.19,-0.1915,-0.1959,-0.197,-0.1997,-0.2039,-0.2076,-0.2107,-0.2165,-0.2209,-0.2226,-0.2262,-0.224,-0.2258,-0.2232,-0.2243,-0.2234,-0.2222,-0.2221,-0.2043,-0.2031,-0.216,-0.2157,-0.2185,-0.2184,-0.2184,-0.2184,0,-0.1864,-0.1895,-0.192,-0.1968,-0.1983,-0.2,-0.207,-0.2103,-0.216,-0.2223,-0.2236,-0.2295,-0.2323,-0.2316,-0.2309,-0.2288,-0.2284,-0.2287,-0.2095,-0.2073,-0.2266,-0.2263,-0.231,-0.2312,-0.2313,-0.2314,-0.2315,0,-0.1847,-0.1854,-0.1903,-0.1917,-0.1936,-0.1973,-0.2004,-0.2079,-0.213,-0.2246,-0.2277,-0.2339,-0.2391,-0.2415,-0.2353,-0.2331,-0.2341,-0.2155,-0.2085,-0.2286,-0.228,-0.2276,-0.2271,-0.1859,-0.1856,-0.1854,-0.1852,0,-0.1806,-0.1822,-0.1838,-0.1872,-0.19,-0.1941,-0.1998,-0.2041,-0.2143,-0.2222,-0.2336,-0.2395,-0.2424,-0.2329,-0.2306,-0.2247,-0.2144,-0.2113,-0.2347,-0.1886,-0.1871,-0.1863,-0.187,-0.183,-0.1832,-0.1834,-0.1835,-0.1836,-0.1762,-0.1763,-0.1786,-0.1811,-0.1849,-0.189,-0.1902,-0.1988,-0.2072,-0.2157,-0.229,-0.2325,-0.2281,-0.2184,-0.2082,-0.1974,-0.211,-0.1981,-0.1982,-0.1988,-0.1958,-0.1949,-0.1918,-0.192,-0.1922,-0.1924,-0.1926,0,-0.169,-0.1707,-0.1727,-0.1752,-0.1754,-0.1811,-0.188,-0.186,-0.1925,-0.2047,-0.2136,-0.1971,-0.1948,-0.1905,-0.1728,-0.1709,-0.1613,-0.1618,-0.1471,-0.1495,-0.1516,-0.1456,-0.1286,-0.1284,-0.1282,-0.128,0,0,-0.1652,-0.1634,-0.1646,-0.163,-0.1657,-0.1626,-0.1643,-0.1641,-0.1684,-0.1696,-0.1742,-0.1916,-0.193,-0.1637,-0.1532,-0.1397,-0.1428,-0.1325,-0.184,-0.1695,-0.1714,-0.173,-0.1669,0,0,0,0,0]},{"header":{"parameterUnit":"m.s-1","parameterCategory":2,"la1":30.2991,"la2":30.254,"lo1":-89.0895,"lo2":-89.0444,"dy":0.0017,"dx":0.0017,"nx":28,"ny":28,"refTime":"2024-02-29T03:00:00:Z","depth":"2","parameterNumber":3,"parameterNumberName":"V-component_of_CURRENTS"},"data":[0,0,0,0,0,0,0,0,0,0,0,0,0,0,0,0,0,0,0,0,0,0,0,0,0,0,0,0,0,0,0,0,0,0,0,0,0,0,0,0,0,0,0,0,0,0,0,0,0,0,0,0,0,0,0,0,0,0,-0.0348,-0.0348,0,-0.0264,-0.0263,-0.0262,-0.0206,-0.0206,-0.0206,-0.0206,-0.0103,-0.01,-0.0098,0,0,0,0,0,0,0,0,0,0,0,0,0,-0.0406,-0.0405,-0.0348,-0.0347,-0.0347,-0.0265,-0.0263,-0.0262,-0.0206,-0.0206,-0.0206,-0.0205,-0.0103,-0.01,-0.0097,0,0,0,0,0,0,0,0,0,0,0,0,0,-0.0356,-0.0405,-0.0349,-0.031,-0.0306,-0.0265,-0.0263,-0.0262,-0.0206,-0.0206,-0.0206,-0.0205,-0.0104,-0.0101,-0.0097,-0.0081,0,0,-0.0086,-0.0084,0,0,0,0,0,0,0,0,-0.0359,-0.0354,-0.0317,-0.0313,-0.0308,-0.0247,-0.0246,-0.0201,-0.0207,-0.0243,-0.0206,-0.0205,-0.015,-0.0143,-0.0126,-0.0076,-0.0072,-0.0085,-0.0083,-0.0081,-0.008,0,0,0,0,0,0,0,-0.0363,-0.0357,-0.0314,-0.0316,-0.031,-0.0278,-0.0271,-0.0237,-0.0198,-0.0239,-0.0236,-0.0229,-0.0147,-0.013,-0.0123,-0.0071,-0.0085,-0.0082,-0.008,-0.0078,0.0006,0.0006,0,0,0,0,0,0,-0.0379,-0.0361,-0.0316,-0.0311,-0.0335,-0.0278,-0.027,-0.0266,-0.0199,-0.0189,-0.0229,-0.0226,-0.0136,-0.0128,-0.0119,-0.0092,-0.0081,-0.0078,-0.0076,0.0006,0.0006,0.0006,0,0,0,0,0,0,-0.0381,-0.0376,-0.032,-0.0335,-0.0326,-0.0278,-0.0273,-0.0264,-0.0246,-0.0191,-0.0181,-0.0221,-0.0136,-0.0125,-0.0088,-0.0088,-0.0076,-0.0073,0.0006,0.0006,0.0006,-0.004,0,0,0,0,0,0,-0.0383,-0.0377,-0.038,-0.0336,-0.0325,-0.03,-0.0273,-0.0263,-0.0243,-0.0239,-0.0181,-0.017,-0.0135,-0.0094,-0.0085,-0.0082,-0.007,0.0006,0.0006,0.0006,-0.0038,-0.0041,-0.0044,0,0,0,0,0,-0.0385,-0.039,-0.0381,-0.0375,-0.0331,-0.03,-0.0292,-0.0255,-0.0243,-0.0237,-0.0197,-0.0172,-0.0088,-0.0091,-0.008,-0.0076,0.0006,0.0006,0.0006,-0.0037,-0.0041,-0.0044,0,0,0,0,0,0,-0.0411,-0.0383,-0.0372,-0.0367,-0.034,-0.0291,-0.0283,-0.026,-0.0224,-0.022,-0.017,-0.0157,-0.0126,-0.0096,-0.0101,-0.0053,-0.0038,-0.0036,-0.0074,-0.0077,-0.008,-0.0088,-0.0067,0,0,0,0,0,-0.0421,-0.042,-0.0385,-0.0381,-0.0371,-0.0329,-0.0313,-0.029,-0.0252,-0.0236,-0.0195,-0.0154,-0.0118,-0.0095,-0.006,-0.0031,-0.0002,-0.0023,-0.0026,-0.0028,-0.0027,0.0014,0.0015,0.0005,0.0005,0.0005,0,0,-0.0429,-0.0415,-0.0413,-0.0387,-0.0363,-0.0349,-0.0318,-0.0298,-0.0282,-0.0231,-0.0199,-0.0164,-0.0114,-0.0082,-0.0066,-0.0056,-0.0011,-0.0028,-0.0031,-0.0028,0.0014,0.0015,0.0016,0.0005,0.0005,0.0005,0,0,-0.0448,-0.0435,-0.044,-0.0422,-0.0395,-0.0367,-0.0366,-0.0323,-0.0299,-0.0268,-0.0228,-0.0192,-0.0137,-0.0097,-0.0071,-0.0069,-0.0032,-0.0062,-0.0076,-0.0037,-0.0036,-0.0035,-0.0003,0.0002,-0.0059,-0.0059,-0.0059,0,-0.046,-0.0463,-0.0436,-0.0435,-0.0423,-0.038,-0.0379,-0.0347,-0.0297,-0.0278,-0.0265,-0.0181,-0.0142,-0.0095,-0.0094,-0.0075,-0.0051,-0.0068,-0.0041,-0.0039,-0.0037,-0.0005,0.0001,-0.0062,-0.0061,-0.0061,-0.0061,0,-0.048,-0.0482,-0.0483,-0.047,-0.0451,-0.0444,-0.0402,-0.038,-0.0351,-0.0315,-0.0268,-0.0212,-0.016,-0.0144,-0.0116,-0.0081,-0.0069,-0.0054,-0.0035,-0.0039,-0.0004,0.0002,-0.0065,-0.0064,-0.0063,-0.0063,0,0,-0.0509,-0.0501,-0.0502,-0.0506,-0.0472,-0.046,-0.0434,-0.0398,-0.0383,-0.0329,-0.0301,-0.0235,-0.0204,-0.0172,-0.013,-0.0093,-0.006,-0.0072,-0.0069,-0.0044,0.0022,0.0056,0.0067,-0.0042,-0.0041,-0.004,0.0038,0,-0.0534,-0.0554,-0.0533,-0.054,-0.0546,-0.0501,-0.0483,-0.0441,-0.04,-0.0361,-0.0292,-0.0252,-0.0213,-0.0192,-0.0148,-0.0079,-0.0043,-0.0082,0.0027,0.003,0.0058,0.0076,0.0049,0.0119,0.0045,0.0046,0.0047,0,-0.0561,-0.0573,-0.0594,-0.0587,-0.0584,-0.0576,-0.0542,-0.0518,-0.0449,-0.0417,-0.0357,-0.03,-0.0225,-0.0203,-0.0082,-0.0109,-0.0051,0.0,0.0005,0.0059,0.0077,0.0113,0.0134,0.0058,0.0057,0.0056,0.0056,0,-0.0606,-0.0612,-0.0635,-0.0632,-0.0615,-0.0611,-0.0594,-0.0539,-0.0523,-0.0451,-0.0429,-0.033,-0.0281,-0.0188,-0.007,-0.0078,0.0058,0.0062,0.0148,0.0151,0.0162,0.0164,0.0137,0.0137,0.0136,0.0136,0.0136,0,-0.0645,-0.0661,-0.0662,-0.0676,-0.0699,-0.0661,-0.0667,-0.0633,-0.0584,-0.0569,-0.0465,-0.0425,-0.0277,-0.0175,-0.0077,0.0066,0.0058,0.0153,0.0179,0.0145,0.0145,0.0119,0.0116,0.0139,0.0138,0.0138,0.0137,0,-0.069,-0.0689,-0.0721,-0.0723,-0.0725,-0.0741,-0.0731,-0.0735,-0.0673,-0.0648,-0.0627,-0.0491,-0.0351,-0.0197,-0.0037,0.0058,0.0187,0.0233,0.0184,0.0203,0.0251,0.0245,0.0338,0.034,0.0341,0.0343,0.0344,0,-0.0714,-0.0738,-0.0769,-0.08,-0.0806,-0.0823,-0.0841,-0.0792,-0.079,-0.0689,-0.0682,-0.0531,-0.043,-0.0161,0.0041,0.0236,0.0228,0.0318,0.0305,0.0259,0.0275,0.0266,0.0257,0.0297,0.0297,0.0298,0.0298,0,-0.0764,-0.0776,-0.0807,-0.0879,-0.0913,-0.0946,-0.0958,-0.0969,-0.0905,-0.0868,-0.0792,-0.0698,-0.0406,-0.0172,0.0114,0.022,0.0291,0.0337,0.0314,0.0251,0.0228,0.024,0.0232,0.0303,0.0303,0.0303,0.0302,0.0302,-0.0799,-0.0841,-0.0894,-0.096,-0.1008,-0.1064,-0.1104,-0.1095,-0.1091,-0.1027,-0.0901,-0.0744,-0.0453,-0.0062,0.0166,0.0372,0.0351,0.0393,0.0388,0.0383,0.0366,0.0347,0.0441,0.0442,0.0442,0.0442,0.0442,0,-0.0836,-0.0899,-0.0972,-0.1054,-0.1125,-0.1133,-0.1183,-0.1197,-0.1206,-0.1117,-0.1024,-0.0709,-0.0392,-0.0095,0.0242,0.0448,0.0429,0.0474,0.0412,0.0406,0.04,0.0381,0.0463,0.0463,0.0464,0.0465,0,0,-0.0862,-0.0942,-0.099,-0.1131,-0.12,-0.1283,-0.1322,-0.1323,-0.1275,-0.1205,-0.1079,-0.0844,-0.0443,-0.0189,0.0097,0.0278,0.0271,0.0288,0.0245,0.0128,0.012,0.0327,0.0288,0,0,0,0,0]}],[{"header":{"parameterUnit":"m.s-1","parameterCategory":2,"la1":30.2991,"la2":30.254,"lo1":-89.0895,"lo2":-89.0444,"dy":0.0017,"dx":0.0017,"nx":28,"ny":28,"refTime":"2024-02-29T03:00:00:Z","depth":"4","parameterNumber":2,"parameterNumberName":"U-component_of_CURRENTS"},"data":[0,0,0,0,0,0,0,0,0,0,0,0,0,0,0,0,0,0,0,0,0,0,0,0,0,0,0,0,0,0,0,0,0,0,0,0,0,0,0,0,0,0,0,0,0,0,0,0,0,0,0,0,0,0,0,0,0,0,-0.1248,-0.1249,0,-0.129,-0.129,-0.129,-0.1323,-0.1324,-0.1324,-0.1325,-0.1377,-0.1378,-0.1379,0,0,0,0,0,0,0,0,0,0,0,0,0,-0.1191,-0.1192,-0.1248,-0.1249,-0.1249,-0.129,-0.129,-0.1291,-0.1323,-0.1324,-0.1324,-0.1325,-0.1377,-0.1378,-0.1379,0,0,0,0,0,0,0,0,0,0,0,0,0,-0.1221,-0.1192,-0.1248,-0.1271,-0.1274,-0.129,-0.129,-0.1291,-0.1323,-0.1324,-0.1325,-0.1325,-0.1376,-0.1378,-0.1379,-0.1375,0,0,-0.1384,-0.1384,0,0,0,0,0,0,0,0,-0.1219,-0.1223,-0.1267,-0.127,-0.1273,-0.1303,-0.1289,-0.132,-0.1323,-0.1303,-0.1325,-0.1325,-0.1354,-0.1357,-0.1361,-0.1377,-0.1379,-0.1384,-0.1385,-0.1385,-0.1386,0,0,0,0,0,0,0,-0.1217,-0.1222,-0.1263,-0.1268,-0.1271,-0.1278,-0.1283,-0.1295,-0.1323,-0.1305,-0.1308,-0.1314,-0.1355,-0.136,-0.1363,-0.138,-0.1384,-0.1385,-0.1386,-0.1387,-0.1459,-0.146,0,0,0,0,0,0,-0.1215,-0.122,-0.1262,-0.1264,-0.1249,-0.1279,-0.1284,-0.1292,-0.1323,-0.1329,-0.1314,-0.1316,-0.1357,-0.1361,-0.1365,-0.1421,-0.1385,-0.1387,-0.1388,-0.1458,-0.1459,-0.146,0,0,0,0,0,0,-0.1213,-0.1218,-0.126,-0.1244,-0.125,-0.1279,-0.1287,-0.1292,-0.1321,-0.133,-0.1336,-0.1341,-0.1358,-0.1363,-0.1398,-0.1421,-0.1387,-0.1389,-0.1456,-0.1458,-0.146,-0.1496,0,0,0,0,0,0,-0.1211,-0.1217,-0.1232,-0.1244,-0.1251,-0.1286,-0.1287,-0.1293,-0.1323,-0.1327,-0.1354,-0.1358,-0.1359,-0.1396,-0.1399,-0.1423,-0.139,-0.1455,-0.1457,-0.1459,-0.1493,-0.1499,-0.1503,0,0,0,0,0,-0.1209,-0.1224,-0.1232,-0.1238,-0.1267,-0.1287,-0.1292,-0.1313,-0.1324,-0.1341,-0.1361,-0.1359,-0.141,-0.1398,-0.1402,-0.1426,-0.1454,-0.1457,-0.1459,-0.1491,-0.1498,-0.1503,0,0,0,0,0,0,-0.1208,-0.1229,-0.1239,-0.126,-0.128,-0.1294,-0.1314,-0.1326,-0.1355,-0.1365,-0.1372,-0.1378,-0.1416,-0.1417,-0.1402,-0.1453,-0.1432,-0.1435,-0.1455,-0.1461,-0.1466,-0.1468,-0.1391,0,0,0,0,0,-0.1214,-0.1232,-0.125,-0.127,-0.1282,-0.1302,-0.1317,-0.1333,-0.1353,-0.1368,-0.1387,-0.1407,-0.1424,-0.144,-0.1454,-0.1483,-0.1478,-0.1501,-0.1506,-0.151,-0.1515,-0.1522,-0.1527,-0.1468,-0.1468,-0.1468,0,0,-0.122,-0.1234,-0.1245,-0.1272,-0.1289,-0.1313,-0.1314,-0.1344,-0.137,-0.1368,-0.1416,-0.1426,-0.1435,-0.1467,-0.1484,-0.1475,-0.1527,-0.1513,-0.1516,-0.1519,-0.1525,-0.1531,-0.1536,-0.1469,-0.1469,-0.1469,0,0,-0.1232,-0.1253,-0.1271,-0.1291,-0.1323,-0.1335,-0.135,-0.1378,-0.14,-0.1438,-0.1444,-0.147,-0.1501,-0.1511,-0.1519,-0.1559,-0.155,-0.1567,-0.1596,-0.1603,-0.1608,-0.1612,-0.1619,-0.1624,-0.1571,-0.1571,-0.1571,0,-0.124,-0.1263,-0.1281,-0.1304,-0.1326,-0.1349,-0.1375,-0.1399,-0.1438,-0.1457,-0.1462,-0.151,-0.152,-0.1552,-0.1568,-0.157,-0.1572,-0.1572,-0.1608,-0.1612,-0.1616,-0.1622,-0.1627,-0.1573,-0.1573,-0.1573,-0.1572,0,-0.1259,-0.1289,-0.1303,-0.1339,-0.1365,-0.1393,-0.1425,-0.1458,-0.1486,-0.1506,-0.1552,-0.1563,-0.159,-0.1599,-0.1598,-0.1633,-0.1626,-0.1611,-0.1592,-0.1624,-0.1629,-0.1633,-0.1576,-0.1575,-0.1575,-0.1574,0,0,-0.1243,-0.1305,-0.1311,-0.1338,-0.1388,-0.1408,-0.1457,-0.15,-0.1536,-0.157,-0.161,-0.1639,-0.1645,-0.1654,-0.1656,-0.1667,-0.1697,-0.1656,-0.1656,-0.166,-0.1717,-0.1637,-0.1633,-0.1689,-0.169,-0.169,-0.1713,0,-0.1254,-0.13,-0.1331,-0.1383,-0.1409,-0.1452,-0.1493,-0.1538,-0.1578,-0.1623,-0.164,-0.1677,-0.1666,-0.1683,-0.1694,-0.1697,-0.1709,-0.1693,-0.1689,-0.1689,-0.161,-0.1635,-0.1693,-0.1715,-0.1716,-0.1717,-0.1717,0,-0.1254,-0.1288,-0.1339,-0.1406,-0.1423,-0.146,-0.1531,-0.1572,-0.1635,-0.1665,-0.1701,-0.1718,-0.1748,-0.173,-0.1749,-0.1741,-0.1736,-0.1733,-0.1733,-0.1647,-0.1615,-0.1675,-0.1724,-0.1724,-0.1723,-0.1723,-0.1722,0,-0.1219,-0.1291,-0.1333,-0.1357,-0.1435,-0.1472,-0.1516,-0.1585,-0.1628,-0.1694,-0.1729,-0.1759,-0.1783,-0.1781,-0.1782,-0.177,-0.1798,-0.1773,-0.1697,-0.1692,-0.1741,-0.1736,-0.1786,-0.1786,-0.1786,-0.1785,-0.1785,0,-0.12,-0.1237,-0.1325,-0.1346,-0.1401,-0.1463,-0.1524,-0.1575,-0.1651,-0.1695,-0.1746,-0.1777,-0.1799,-0.1818,-0.1803,-0.1763,-0.1812,-0.1706,-0.1691,-0.1757,-0.1754,-0.1744,-0.1739,-0.1786,-0.1786,-0.1786,-0.1786,0,-0.1148,-0.1207,-0.126,-0.1352,-0.1385,-0.1423,-0.1524,-0.1565,-0.1645,-0.1706,-0.1729,-0.1801,-0.1818,-0.1834,-0.1839,-0.1782,-0.1756,-0.1733,-0.1817,-0.1806,-0.164,-0.1637,-0.1636,-0.1634,-0.1632,-0.163,-0.1628,0,-0.1122,-0.1145,-0.125,-0.1284,-0.1329,-0.1399,-0.1445,-0.1544,-0.1588,-0.1704,-0.1722,-0.1786,-0.1815,-0.1758,-0.178,-0.1747,-0.1726,-0.1702,-0.1654,-0.1639,-0.1625,-0.1626,-0.1625,-0.1624,-0.1624,-0.1623,-0.1623,0,-0.1068,-0.1115,-0.1156,-0.1226,-0.1285,-0.1341,-0.1416,-0.1439,-0.1547,-0.1643,-0.1674,-0.1683,-0.1708,-0.17,-0.1694,-0.1666,-0.1707,-0.1678,-0.1682,-0.1636,-0.1624,-0.1613,-0.1615,-0.1615,-0.1616,-0.1617,-0.1617,0,-0.1025,-0.1039,-0.1101,-0.115,-0.1222,-0.1253,-0.1305,-0.136,-0.1415,-0.1551,-0.1559,-0.1625,-0.1699,-0.166,-0.1652,-0.1621,-0.1587,-0.1525,-0.1535,-0.1545,-0.1502,-0.1472,-0.1405,0,0,0,0,0,-0.0974,-0.0979,-0.1021,-0.1066,-0.1133,-0.1172,-0.1273,-0.1329,-0.1441,-0.1432,-0.1493,-0.1511,-0.1509,-0.1547,-0.1491,-0.1593,-0.1581,-0.1522,-0.1513,-0.1571,-0.158,-0.1537,0,0,0,0,0,0,-0.0939,-0.0971,-0.0985,-0.0982,-0.0997,-0.1057,-0.1113,-0.1193,-0.1199,-0.132,-0.1328,-0.1422,-0.1438,-0.1515,-0.1459,-0.1468,-0.1434,-0.1572,-0.1569,-0.1566,-0.1574,-0.1581,-0.154,0,0,0,0,0]},{"header":{"parameterUnit":"m.s-1","parameterCategory":2,"la1":30.2991,"la2":30.254,"lo1":-89.0895,"lo2":-89.0444,"dy":0.0017,"dx":0.0017,"nx":28,"ny":28,"refTime":"2024-02-29T03:00:00:Z","depth":"4","parameterNumber":3,"parameterNumberName":"V-component_of_CURRENTS"},"data":[0,0,0,0,0,0,0,0,0,0,0,0,0,0,0,0,0,0,0,0,0,0,0,0,0,0,0,0,0,0,0,0,0,0,0,0,0,0,0,0,0,0,0,0,0,0,0,0,0,0,0,0,0,0,0,0,0,0,-0.0117,-0.0116,0,-0.0059,-0.0059,-0.0058,-0.0017,-0.0017,-0.0016,-0.0016,0.0066,0.0068,0.007,0,0,0,0,0,0,0,0,0,0,0,0,0,-0.0143,-0.0143,-0.0117,-0.0116,-0.0116,-0.0059,-0.0058,-0.0058,-0.0017,-0.0017,-0.0016,-0.0016,0.0065,0.0068,0.007,0,0,0,0,0,0,0,0,0,0,0,0,0,-0.0112,-0.0143,-0.0117,-0.009,-0.0087,-0.006,-0.0058,-0.0057,-0.0017,-0.0017,-0.0016,-0.0016,0.0065,0.0068,0.007,0.0083,0,0,0.008,0.0081,0,0,0,0,0,0,0,0,-0.0114,-0.0111,-0.0094,-0.0092,-0.0088,-0.0046,-0.0038,-0.001,-0.0017,-0.0042,-0.0016,-0.0016,0.003,0.0036,0.0047,0.0087,0.0091,0.008,0.0082,0.0083,0.0084,0,0,0,0,0,0,0,-0.0116,-0.0113,-0.0093,-0.0094,-0.009,-0.0064,-0.0059,-0.0032,-0.0007,-0.004,-0.0037,-0.0033,0.0032,0.0044,0.005,0.0092,0.008,0.0083,0.0084,0.0086,0.0152,0.0152,0,0,0,0,0,0,-0.0129,-0.0115,-0.0095,-0.0091,-0.0102,-0.0064,-0.0059,-0.0059,-0.0008,-0.0,-0.0033,-0.0031,0.0039,0.0046,0.0053,0.0068,0.0083,0.0086,0.0088,0.0152,0.0152,0.0152,0,0,0,0,0,0,-0.013,-0.0128,-0.0097,-0.0103,-0.0097,-0.0064,-0.0064,-0.0058,-0.0047,-0.0003,0.0005,-0.0029,0.004,0.0049,0.0076,0.0072,0.0087,0.009,0.0152,0.0152,0.0152,0.01,0,0,0,0,0,0,-0.0131,-0.0129,-0.0135,-0.0104,-0.0097,-0.0087,-0.0064,-0.0057,-0.0046,-0.0042,0.0003,0.0011,0.0041,0.0071,0.0079,0.0076,0.0092,0.0152,0.0152,0.0152,0.0102,0.0098,0.0095,0,0,0,0,0,-0.0132,-0.0142,-0.0136,-0.0133,-0.0107,-0.0088,-0.0082,-0.0056,-0.0046,-0.0044,-0.0012,0.0009,0.0076,0.0073,0.0083,0.008,0.0152,0.0152,0.0152,0.0104,0.0099,0.0096,0,0,0,0,0,0,-0.0155,-0.0138,-0.0131,-0.0135,-0.0116,-0.0081,-0.0079,-0.0062,-0.0035,-0.0032,0.001,0.002,0.0042,0.0069,0.0065,0.01,0.0117,0.0119,0.0077,0.0074,0.007,0.0062,0.0095,0,0,0,0,0,-0.0165,-0.0169,-0.0145,-0.0149,-0.0143,-0.0113,-0.0103,-0.0086,-0.0058,-0.0046,-0.0015,0.002,0.0049,0.0066,0.0095,0.0115,0.014,0.012,0.0116,0.0113,0.0113,0.0145,0.0144,0.0151,0.0151,0.0151,0,0,-0.0174,-0.0166,-0.0169,-0.0155,-0.0139,-0.0134,-0.0106,-0.0096,-0.0088,-0.0042,-0.0023,0.0008,0.0051,0.0073,0.0085,0.0095,0.0123,0.0113,0.011,0.0111,0.0144,0.0144,0.0143,0.0151,0.0151,0.0151,0,0,-0.0196,-0.019,-0.0201,-0.019,-0.0173,-0.0153,-0.0154,-0.0124,-0.0108,-0.0087,-0.0052,-0.0023,0.002,0.0052,0.0074,0.0071,0.0103,0.0078,0.0057,0.0087,0.0087,0.0087,0.0112,0.0114,0.0078,0.0078,0.0078,0,-0.0209,-0.0218,-0.02,-0.0204,-0.0199,-0.0166,-0.0171,-0.015,-0.0114,-0.0101,-0.0089,-0.0022,0.0011,0.0046,0.0045,0.0063,0.0083,0.0066,0.0082,0.0083,0.0083,0.0109,0.0113,0.0075,0.0075,0.0076,0.0076,0,-0.0233,-0.0241,-0.0246,-0.0242,-0.0233,-0.0233,-0.0204,-0.0192,-0.017,-0.0144,-0.0111,-0.0062,-0.0022,-0.0008,0.0019,0.0042,0.0055,0.0071,0.0089,0.0079,0.0107,0.0112,0.0072,0.0072,0.0073,0.0074,0,0,-0.0255,-0.0264,-0.0265,-0.0273,-0.0255,-0.025,-0.024,-0.0218,-0.0212,-0.0172,-0.0156,-0.0102,-0.0074,-0.0047,-0.0009,0.0019,0.0041,0.0043,0.0046,0.0061,0.0104,0.0104,0.011,0.0058,0.0058,0.0059,0.0118,0,-0.0279,-0.0306,-0.0297,-0.0314,-0.0323,-0.0294,-0.0288,-0.0264,-0.0235,-0.0212,-0.0155,-0.0126,-0.0089,-0.0072,-0.0037,0.0025,0.0052,0.0023,0.0116,0.0119,0.0116,0.0115,0.0061,0.0122,0.0123,0.0124,0.0125,0,-0.03,-0.0318,-0.0345,-0.0355,-0.0356,-0.0359,-0.0345,-0.0334,-0.029,-0.0268,-0.0225,-0.0178,-0.012,-0.0095,0.0005,-0.0016,0.0036,0.0082,0.0085,0.0108,0.0128,0.0137,0.0133,0.0133,0.0132,0.0131,0.0131,0,-0.0324,-0.0347,-0.0374,-0.0377,-0.0381,-0.0388,-0.0385,-0.0354,-0.035,-0.0303,-0.029,-0.0214,-0.0175,-0.0097,0.0006,0.0003,0.0112,0.0122,0.0171,0.0172,0.0176,0.0176,0.0181,0.0181,0.0181,0.0181,0.0181,0,-0.0345,-0.0367,-0.0393,-0.0408,-0.0439,-0.0425,-0.0445,-0.0427,-0.0404,-0.0401,-0.0324,-0.0295,-0.0175,-0.0092,-0.0005,0.0101,0.0107,0.0168,0.0188,0.0152,0.0149,0.0179,0.0178,0.0183,0.0183,0.0182,0.0182,0,-0.0359,-0.0377,-0.0415,-0.0442,-0.0453,-0.0475,-0.0496,-0.0509,-0.0475,-0.0466,-0.0453,-0.0354,-0.0246,-0.0121,0.0013,0.0082,0.0185,0.0219,0.017,0.0187,0.0225,0.022,0.0274,0.0274,0.0275,0.0275,0.0275,0,-0.0366,-0.0389,-0.0446,-0.0481,-0.0499,-0.0533,-0.0561,-0.0549,-0.0557,-0.0499,-0.0494,-0.0388,-0.0312,-0.0121,0.0012,0.0179,0.02,0.0251,0.0238,0.022,0.0235,0.023,0.0225,0.0276,0.0276,0.0276,0.0276,0,-0.0381,-0.0408,-0.0444,-0.0521,-0.0569,-0.0615,-0.0647,-0.0657,-0.0635,-0.0603,-0.053,-0.0416,-0.0291,-0.0132,0.0003,0.0123,0.0219,0.0256,0.0256,0.0244,0.0224,0.0237,0.0231,0.0278,0.0278,0.0278,0.0277,0,-0.0393,-0.0429,-0.0489,-0.0553,-0.0623,-0.0681,-0.0693,-0.0695,-0.0692,-0.062,-0.0596,-0.0446,-0.0352,-0.016,-0.0034,0.0086,0.0111,0.0141,0.0147,0.0147,0.0097,0.0052,0.007,0,0,0,0,0,-0.04,-0.0449,-0.0518,-0.0596,-0.067,-0.0707,-0.0744,-0.0744,-0.0719,-0.0682,-0.0638,-0.0518,-0.0314,-0.0212,-0.0096,-0.0031,0.0127,0.0109,0.0163,0.0287,0.0285,0.0248,0,0,0,0,0,0,-0.041,-0.0475,-0.0519,-0.0621,-0.0681,-0.0757,-0.0786,-0.077,-0.0737,-0.0688,-0.058,-0.0497,-0.0298,-0.0387,-0.0097,-0.0056,-0.0007,0.0216,0.0218,0.0288,0.0286,0.0285,0.0246,0,0,0,0,0]}]]